FW3734 Weather Reports


time (UTC)temp
F
wind
direction
speed
knots
gust
knots
rain 1hr
in
rain 24hr
in
rain mn
in
humidity
%
barometer
mb
20260906051530 86 355 0.0 5.2 0.00 0.00 0.00 72 1012.6
20260906050029 87 69 0.0 7.0 0.00 0.00 0.00 71 1012.5
20260906044526 87 108 3.5 9.6 0.00 0.00 0.00 70 1012.3
20260906043026 87 107 0.0 0.0 0.00 0.00 0.00 69 1012.3
20260906041535 87 30 0.0 0.0 0.00 0.00 0.00 68 1012.3
20260906040024 87 36 0.0 0.0 0.00 0.00 0.00 66 1012.1
20260906034529 88 76 0.0 0.0 0.00 0.00 0.00 64 1012.0
20260906033025 88 28 0.0 2.6 0.00 0.00 0.00 62 1012.0
20260906031522 88 20 0.0 0.9 0.00 0.00 0.00 60 1011.8
20260906030022 89 20 0.0 0.0 0.00 0.00 0.00 59 1011.8
20260906024522 89 20 0.0 0.0 0.00 0.00 0.00 58 1011.6
20260906023022 89 26 0.0 0.0 0.00 0.00 0.00 57 1011.4
20260906021521 89 26 0.0 0.0 0.00 0.00 0.00 57 1011.2
20260906020021 90 26 0.0 0.0 0.00 0.00 0.00 57 1011.1
20260906014524 90 26 0.0 0.0 0.00 0.00 0.00 56 1010.9
20260906013020 91 26 0.0 0.0 0.00 0.00 0.00 56 1010.6
20260906011519 92 26 0.0 0.0 0.00 0.00 0.00 55 1010.5
20260906010018 92 26 0.0 0.0 0.00 0.00 0.00 54 1010.4
20260906004517 93 26 0.0 0.0 0.00 0.00 0.00 52 1010.2
20260906003017 94 344 0.0 0.0 0.00 0.00 0.00 51 1010.2
20260906001517 95 5 0.0 0.0 0.00 0.00 0.00 50 1010.2
20260906000016 95 5 0.0 0.9 0.00 0.00 0.00 48 1010.1
20260905234516 96 15 0.0 0.0 0.00 0.00 0.00 47 1010.2
20260905233016 96 5 0.0 2.6 0.00 0.00 0.00 46 1010.3
20260905231514 97 248 0.0 5.2 0.00 0.00 0.00 46 1010.4
20260905230014 97 287 0.0 0.9 0.00 0.00 0.00 45 1010.4
20260905224519 98 348 0.0 0.0 0.00 0.00 0.00 44 1010.2
20260905223012 98 288 0.0 0.9 0.00 0.00 0.00 43 1010.1
20260905221527 98 282 0.0 0.0 0.00 0.00 0.00 45 1010.3
20260905220010 99 285 0.0 0.9 0.00 0.00 0.00 46 1010.2
20260905214511 98 225 0.0 3.5 0.00 0.00 0.00 45 1010.3
20260905213009 98 296 0.0 7.0 0.00 0.00 0.00 45 1010.2
20260905211508 97 252 0.0 0.0 0.00 0.00 0.00 46 1010.3
20260905210008 97 261 0.0 0.9 0.00 0.00 0.00 45 1010.5
20260905204504 99 240 0.0 0.9 0.00 0.00 0.00 43 1010.6
20260905203002 99 276 0.0 0.0 0.00 0.00 0.00 42 1010.5
20260905201502 99 342 0.0 0.9 0.00 0.00 0.00 40 1010.7
20260905200004 100 350 0.9 7.8 0.00 0.00 0.00 40 1010.7
20260905194558 100 355 0.0 7.8 0.00 0.00 0.00 39 1010.9
20260905193055 100 256 0.0 1.7 0.00 0.00 0.00 42 1011.2
20260905191556 99 333 0.0 9.6 0.00 0.00 0.00 42 1011.5
20260905190104 99 51 0.0 3.5 0.00 0.00 0.00 42 1011.5
20260905184605 99 300 0.0 7.0 0.00 0.00 0.00 43 1011.6
20260905183047 99 333 0.0 2.6 0.00 0.00 0.00 44 1011.8
20260905181543 98 347 0.0 2.6 0.00 0.00 0.00 46 1011.9
20260905180038 97 17 0.0 6.1 0.00 0.00 0.00 47 1012.1
20260905174544 97 226 0.0 1.7 0.00 0.00 0.00 48 1012.2
20260905173037 97 289 0.0 6.1 0.00 0.00 0.00 49 1012.3
20260905171527 96 338 0.0 4.3 0.00 0.00 0.00 49 1012.6
20260905170025 96 28 0.0 2.6 0.00 0.00 0.00 49 1012.7
20260905164522 95 316 0.0 7.0 0.00 0.00 0.00 50 1012.9
20260905163024 95 324 0.0 0.9 0.00 0.00 0.00 52 1013.0
20260905161514 94 331 0.0 1.7 0.00 0.00 0.00 54 1013.1
20260905160011 93 278 0.0 1.7 0.00 0.00 0.00 55 1013.0
20260905154507 92 312 0.0 7.0 0.00 0.00 0.00 58 1013.1
20260905153005 91 268 0.0 2.6 0.00 0.00 0.00 57 1013.2
20260905151503 90 351 0.0 3.5 0.00 0.00 0.00 59 1013.2
20260905150058 89 266 0.0 7.0 0.00 0.00 0.00 61 1013.1
20260905144557 88 304 0.0 8.7 0.00 0.00 0.00 62 1013.1
20260905143053 87 254 0.0 0.9 0.00 0.00 0.00 67 1013.0
20260905141553 85 227 0.0 0.9 0.00 0.00 0.00 69 1013.1
20260905140046 84 238 0.0 0.0 0.00 0.00 0.00 71 1013.1
20260905134543 83 281 0.0 0.0 0.00 0.00 0.00 74 1012.9
20260905133042 82 257 0.0 0.0 0.00 0.00 0.00 76 1012.9
20260905131556 81 262 0.0 0.0 0.00 0.00 0.00 77 1012.8
20260905130039 81 261 0.0 0.0 0.00 0.00 0.00 78 1012.7
20260905124547 80 261 0.0 0.0 0.00 0.00 0.00 79 1012.6
20260905123045 80 261 0.0 0.0 0.00 0.00 0.00 79 1012.4
20260905121537 79 261 0.0 0.0 0.00 0.00 0.00 79 1012.3
20260905120036 79 261 0.0 0.0 0.00 0.00 0.00 79 1012.2
20260905114541 79 261 0.0 0.0 0.00 0.00 0.00 79 1012.1
20260905113040 79 261 0.0 0.0 0.00 0.00 0.00 79 1012.0
20260905111545 80 261 0.0 0.0 0.00 0.00 0.00 79 1011.9
20260905110032 80 261 0.0 0.0 0.00 0.00 0.00 78 1011.8
20260905104531 80 261 0.0 0.0 0.00 0.00 0.00 77 1011.8
20260905103033 80 261 0.0 0.0 0.00 0.00 0.00 78 1011.9
20260905101538 80 261 0.0 0.0 0.00 0.00 0.00 78 1012.0
20260905100028 80 261 0.0 0.0 0.00 0.00 0.00 77 1011.9
20260905094527 80 261 0.0 0.0 0.00 0.00 0.00 77 1011.9
20260905093026 81 261 0.0 0.0 0.00 0.00 0.00 76 1011.9
20260905091524 81 261 0.0 0.0 0.00 0.00 0.00 76 1011.9
20260905090123 81 261 0.0 0.0 0.00 0.00 0.00 77 1012.0
20260905084550 81 261 0.0 0.0 0.00 0.00 0.00 77 1011.9
20260905083022 81 261 0.0 0.0 0.00 0.00 0.00 76 1012.0
20260905081517 81 261 0.0 0.0 0.00 0.00 0.00 76 1012.2
20260905080016 82 261 0.0 0.0 0.00 0.00 0.00 75 1012.3
20260905074515 82 261 0.0 0.0 0.00 0.00 0.00 75 1012.3
20260905073017 82 261 0.0 0.0 0.00 0.00 0.00 74 1012.2
20260905071514 82 261 0.0 0.0 0.00 0.00 0.00 75 1012.3
20260905070012 82 261 0.0 0.0 0.00 0.00 0.00 74 1012.4
20260905064511 82 261 0.0 0.0 0.00 0.00 0.00 74 1012.3
20260905063010 82 261 0.0 0.0 0.00 0.00 0.00 74 1012.4
20260905061508 82 261 0.0 0.0 0.00 0.00 0.00 73 1012.4
20260905060007 83 261 0.0 0.0 0.00 0.00 0.00 74 1012.4
20260905054506 83 261 0.0 0.0 0.00 0.00 0.00 73 1012.4
20260905053004 83 261 0.0 0.0 0.00 0.00 0.00 72 1012.5